Meteo Giornale » Osservazioni meteo Stati Uniti (USA) » Pease-Portsmouth

ore: 14:55 - Osservazioni Meteo Pease-Portsmouth
Lat. 43° 5' N Lon. 70° 49' W Alt. 31 metri s.l.m.

coperto

19 °C

Coperto

Temp. 24 Ore

16 °C

23 °C

Nord

5.5 Km/h

Dew point 15 °C

Umidità 77 %

Visibilità  10 Km

Il sole sorge alle ore 06:07

Il sole tramonta alle ore 19:18

Data e Ora Cielo e Fenomeni T °C DP °C Um. % Pres. hPa Vis. km Vento km/h
Oggi h: 14:55 coperto Coperto 19 15 77 1018 10 N 5.5
Oggi h: 13:55 coperto Coperto 17 14 82 1018 10 E 9.3
Oggi h: 12:55 coperto_pioggia Pioggia 19 17 88 1017 10 S/SE 7.4
Oggi h: 11:55 coperto Coperto 18 15 82 1017 10 NE 7.4
Oggi h: 10:55 coperto Coperto 18 15 82 1017 10 N 5.5
Oggi h: 10:24 coperto Coperto 17 15 88 1017 10 N 5.5
Oggi h: 09:55 coperto_pioggia Pioggia Foschia 17 14 82 1018 6 N 7.4
Oggi h: 08:55 coperto_pioggia Pioggia 16 14 87 1018 11 N 0
Oggi h: 08:26 coperto_pioggia Pioggia Foschia 16 14 87 1018 5 N 0
Oggi h: 07:55 coperto_pioggia Pioggia Foschia 16 14 87 1018 6 N 7.4
Oggi h: 07:27 coperto_pioggia Pioggia 16 14 87 1018 10 NO 7.4
Oggi h: 06:55 coperto Coperto 17 14 82 1017 10 N 0
Oggi h: 05:55 molto_nuvoloso Molto Nuvoloso 16 14 87 1017 10 N 5.5
Oggi h: 04:55 molto_nuvoloso Molto Nuvoloso 16 14 87 1017 10 N 0
Oggi h: 03:55 coperto Coperto 16 14 87 1017 10 N 0
Oggi h: 02:55 coperto Coperto 17 15 88 1017 10 N 0
Oggi h: 01:55 molto_nuvoloso Molto Nuvoloso 16 14 87 1017 10 N 0
Oggi h: 00:55 molto_nuvoloso Molto Nuvoloso 16 13 82 1017 10 N 0
Ieri h: 23:55 molto_nuvoloso Molto Nuvoloso 16 13 82 1017 10 N 0
Ieri h: 22:55 molto_nuvoloso Molto Nuvoloso 17 13 77 1017 10 N 0
Ieri h: 21:55 molto_nuvoloso Molto Nuvoloso 18 13 72 1017 10 N 0
Ieri h: 20:55 nuvoloso Nuvoloso 18 12 67 1017 10 N 0
Ieri h: 19:55 molto_nuvoloso Molto Nuvoloso 18 13 72 1017 10 SE 7.4
Ieri h: 18:55 poco_nuvoloso Poco Nuvoloso 20 13 64 1017 10 SE 13
Ieri h: 17:55 poco_nuvoloso Poco Nuvoloso 22 13 56 1017 10 S/SE 20.3
Ieri h: 16:55 poco_nuvoloso Poco Nuvoloso 22 13 56 1018 10 SE 20.3
Ieri h: 15:55 poco_nuvoloso Poco Nuvoloso 23 13 53 1018 10 SE 20.3